Effective Sunday, March 17, 2024, the National Weather Service National Data Buoy Center will discontinue its Dial-A-Buoy Interactive Voice Response system. For more information, see Service Change Notice 24-06 (PDF).

Station VAKF1 - 8723214 - Virginia Key, FL Image indicating link to RSS feed of recent meteorological observations for station VAKF1


Conditions at VAKF1 as of
(8:00 am EST)
1300 GMT on 03/03/2024:
     

Click on the graph icon in the table below to see a time series plot of the last five days of that observation.

5-day plot - Wind Direction Wind Direction (WDIR):ESE ( 120 deg true )
5-day plot - Wind Speed Wind Speed (WSPD): 7.0 kts
5-day plot - Wind Gust Wind Gust (GST): 8.9 kts
5-day plot - Atmospheric Pressure Atmospheric Pressure (PRES):30.09 in
5-day plot - Pressure Tendency Pressure Tendency (PTDY):+0.03 in ( Rising )
5-day plot - Air Temperature Air Temperature (ATMP): 75.0 °F
5-day plot - Wind Speed at 10 Meters Wind Speed at 10 meters (WSPD10M): 7.8 kts
5-day plot - Wind Speed at 20 Meters Wind Speed at 20 meters (WSPD20M): 7.8 kts
5-day plot -  Wind Speed, Wind Gust and Atmospheric Pressure Combined plot of Wind Speed, Gust, and Air Pressure
NOS Water Level Observation Network Water Level
Previous observations
TIME
(EST)
5-day plot - Wind Direction
WDIR
 
5-day plot - Wind Speed
WSPD
kts
5-day plot - Wind Gust
GST
kts
5-day plot - Wave Height
WVHT
ft
5-day plot - Dominant Wave Period
DPD
sec
5-day plot - Average Wave Period
APD
sec
5-day plot - Mean Wave Direction
MWD
 
5-day plot - Atmospheric Pressure
PRES
in
5-day plot - Pressure Tendency
PTDY
in
5-day plot - Air Temperature
ATMP
°F
5-day plot - Water Temperature
WTMP
°F
5-day plot - Dew Point
DEWP
°F
5-day plot - Salinity
SAL
psu
5-day plot - Visibility
VIS
nmi
5-day plot - Tide (above MLLW)
TIDE
ft
2024-03-03 07:54 amESE 7.0 8.9----30.09- 75.0-----
2024-03-03 07:48 am SE 7.0 8.9----30.09-- 74.5----
2024-03-03 07:42 amESE 7.0 8.9----30.09-- 74.5----
2024-03-03 07:36 amESE 7.0 8.0----30.09-- 74.5----
2024-03-03 07:30 am---------- 74.5----
2024-03-03 07:24 am---------- 74.5----
2024-03-03 07:18 amESE 7.0 9.9----30.09- 74.8 74.5----
2024-03-03 07:12 amESE 7.0 11.1----30.08- 74.7 74.5----
2024-03-03 07:06 amESE 8.9 12.0----30.08- 74.7 74.5----
2024-03-03 07:00 amESE 7.0 8.0----30.08+0.01 74.7 74.5----
2024-03-03 06:54 amESE 6.0 8.0----30.08- 74.7 74.5----
2024-03-03 06:48 am SE 7.0 11.1----30.09- 74.7 74.5----
2024-03-03 06:42 amESE 7.0 11.1----30.08- 74.7 74.5----
2024-03-03 06:36 am SE 7.0 8.0----30.08- 74.7 74.5----
2024-03-03 06:30 amESE 7.0 8.0----30.08- 74.7 74.5----
2024-03-03 06:24 amESE 7.0 9.9----30.08- 74.7 74.5----
2024-03-03 06:18 amESE 7.0 12.0----30.07- 74.5 74.5----
2024-03-03 06:12 amESE 8.0 12.0----30.07- 74.5 74.5----
2024-03-03 06:06 am E 7.0 11.1----30.07- 74.5 74.5----
2024-03-03 06:00 amESE 8.0 11.1----30.08+0.01- 74.5----
2024-03-03 05:54 amESE 8.0 11.1----30.07-- 74.5----
2024-03-03 05:48 am E 8.0 11.1----30.07- 74.5 74.5----
2024-03-03 05:42 amESE 8.0 11.1----30.07- 74.5 74.5----
2024-03-03 05:36 amESE 8.0 11.1----30.08- 74.5 74.5----
2024-03-03 05:30 amESE 8.0 9.9----30.08- 74.5 74.5----
2024-03-03 05:24 am SE 7.0 9.9----30.08- 74.5 74.7----
2024-03-03 05:18 amESE 7.0 9.9----30.07- 74.5 74.7----
2024-03-03 05:12 amESE 8.0 9.9----30.07- 74.5 74.7----
2024-03-03 05:06 amESE 8.0 12.0----30.07- 74.5 74.7----
2024-03-03 05:00 amESE 8.0 9.9----30.06-0.01 74.5 74.5----
2024-03-03 04:54 amESE 7.0 9.9----30.07- 74.5 74.5----
2024-03-03 04:48 amESE 5.1 8.0----30.07- 74.5 74.5----
2024-03-03 04:42 amESE 5.1 7.0----30.07- 74.3 74.7----
2024-03-03 04:36 amESE 6.0 8.0----30.07- 74.3 74.7----
2024-03-03 04:30 amESE 7.0 11.1----30.07- 73.9 74.7----
2024-03-03 04:24 amESE 8.9 12.0----30.06- 73.9 74.7----
2024-03-03 04:18 am E 7.0 9.9----30.06- 74.3 74.7----
2024-03-03 04:12 am E 8.0 12.0----30.06- 74.1 74.7----
2024-03-03 04:06 am E 8.0 9.9----30.06- 74.3 74.7----
2024-03-03 04:00 amESE 5.1 7.0----30.07-0.02 74.7 74.7----
2024-03-03 03:54 amESE 6.0 8.9----30.07- 74.7 74.7----
2024-03-03 03:48 amESE 5.1 8.9----30.07- 74.5 74.7----
2024-03-03 03:42 amESE 7.0 8.9----30.06- 74.3 74.7----
2024-03-03 03:36 amESE 6.0 7.0----30.06- 74.1 74.7----
2024-03-03 03:30 am E 5.1 7.0----30.07- 74.1 74.7----
2024-03-03 03:24 am E 5.1 7.0----30.07- 74.1 74.7----
2024-03-03 03:18 amESE 6.0 8.0----30.07- 74.5 74.7----
2024-03-03 03:12 amESE 5.1 8.0----30.07- 74.3 74.7----
2024-03-03 03:06 am E 6.0 8.0----30.07- 73.9 74.7----
2024-03-03 03:00 amESE 8.0 9.9----30.07-0.04 73.9 74.7----
2024-03-03 02:54 am E 7.0 9.9----30.07- 74.1 74.7----
2024-03-03 02:48 am E 7.0 8.9----30.07- 74.3 74.8----
2024-03-03 02:42 am E 6.0 8.9----30.07- 74.1 74.8----
2024-03-03 02:36 am E 7.0 9.9----30.07- 74.5 74.8----
2024-03-03 02:30 amESE 7.0 9.9----30.08- 74.3 74.8----
2024-03-03 02:24 am E 7.0 9.9----30.08- 74.5 74.8----
2024-03-03 02:18 am E 7.0 8.9----30.08- 74.3 74.8----
2024-03-03 02:12 amESE 8.0 11.1----30.08- 74.5 74.8----
2024-03-03 02:06 amESE 6.0 8.0----30.08- 74.7 74.8----
2024-03-03 02:00 am SE 6.0 7.0----30.08-0.03 74.8 74.8----
2024-03-03 01:54 am SE 6.0 8.0----30.08- 74.8 74.8----
2024-03-03 01:48 am SE 6.0 8.0----30.08- 74.8 74.8----
2024-03-03 01:42 am SE 4.1 6.0----30.09- 74.7 74.8----
2024-03-03 01:36 am SE 5.1 6.0----30.08- 74.7 74.7----
2024-03-03 01:30 am SE 4.1 6.0----30.08- 74.7 74.7----
2024-03-03 01:24 am SE 4.1 6.0----30.09- 74.7 74.7----
2024-03-03 01:18 am SE 5.1 7.0----30.08- 74.7 74.7----
2024-03-03 01:12 amESE 2.9 5.1----30.09- 74.7 74.7----
2024-03-03 01:06 amESE 1.9 4.1----30.09- 74.5 74.7----
2024-03-03 01:00 am E 2.9 5.1----30.09-0.02 74.5 74.7----
2024-03-03 12:54 amESE 4.1 5.1----30.09- 74.5 74.7----
2024-03-03 12:48 am SE 1.9 5.1----30.10- 74.3 74.7----
2024-03-03 12:42 am SE 2.9 5.1----30.10- 74.3 74.7----
2024-03-03 12:36 am SE 4.1 5.1----30.10- 74.3 74.7----
2024-03-03 12:30 amESE 2.9 4.1----30.09- 74.1 74.7----
2024-03-03 12:24 am E 1.9 4.1----30.10- 74.1 74.7----
2024-03-03 12:18 am- 0.0 1.9----30.11- 74.3 74.8----
2024-03-03 12:12 amSSE 1.0 1.9----30.11- 74.3 74.8----
2024-03-03 12:06 am SE 1.9 2.9----30.11- 74.3 74.8----
2024-03-03 12:00 amESE 1.9 2.9----30.11-0.01 74.3 74.7----
2024-03-02 11:54 pm E 1.9 2.9----30.11- 74.3 74.7----
2024-03-02 11:48 pm E 1.9 2.9----30.11- 74.3 74.7----
2024-03-02 11:42 pm E 1.9 4.1----30.11- 74.3 74.5----
2024-03-02 11:36 pm E 2.9 4.1----30.11- 74.3 74.5----
2024-03-02 11:30 pm E 1.9 4.1----30.11- 74.3 74.5----
2024-03-02 11:24 pm E 2.9 2.9----30.10- 74.3 74.5----
2024-03-02 11:18 pm E 2.9 2.9----30.11- 74.1 74.5----
2024-03-02 11:12 pm E 2.9 2.9----30.10- 73.9 74.5----
2024-03-02 11:06 pm SE 1.0 1.9----30.11- 73.9 74.5----
2024-03-02 11:00 pm SE 1.9 2.9----30.11+0.00 73.9 74.5----
2024-03-02 10:54 pmESE 1.9 2.9----30.11- 74.1 74.5----
2024-03-02 10:48 pm E 1.9 4.1----30.11- 74.1 74.5----
2024-03-02 10:42 pm E 1.9 4.1----30.11- 74.1 74.5----
2024-03-02 10:36 pm E 2.9 2.9----30.11- 74.1 74.5----
2024-03-02 10:30 pm E 1.9 2.9----30.11- 73.9 74.5----
2024-03-02 10:24 pm E 1.9 2.9----30.11- 73.9 74.5----
2024-03-02 10:18 pmESE 1.9 2.9----30.11- 73.8 74.5----
2024-03-02 10:12 pm E 1.9 1.9----30.11- 73.9 74.5----
2024-03-02 10:06 pmENE 1.9 4.1----30.11- 73.9 74.5----
2024-03-02 10:00 pm E 1.9 2.9----30.11+0.01 73.9 74.5----
2024-03-02 09:54 pm E 2.9 2.9----30.11- 73.8 74.5----
2024-03-02 09:48 pm E 1.0 1.9----30.11- 73.6 74.5----
2024-03-02 09:42 pm- 0.0 1.0----30.11- 73.6 74.5----
2024-03-02 09:36 pm- 0.0 1.0----30.11- 73.8 74.5----
2024-03-02 09:30 pm- 0.0 1.0----30.11- 73.6 74.5----
2024-03-02 09:24 pm- 0.0 1.0----30.11- 73.6 74.5----
2024-03-02 09:18 pm E 1.0 1.0----30.11- 73.6 74.7----
2024-03-02 09:12 pmESE 1.0 1.0----30.11- 73.8 74.7----
2024-03-02 09:06 pm- 0.0 1.0----30.11- 73.8 74.7----
2024-03-02 09:00 pmSSE 1.0 1.0----30.11+0.02 73.8 74.7----
2024-03-02 08:54 pm- 0.0 1.0----30.11- 73.8 74.7----
2024-03-02 08:48 pmSSE 1.0 1.9----30.11- 73.8 74.7----
2024-03-02 08:42 pmESE 1.9 4.1----30.11- 74.1 74.7----
2024-03-02 08:36 pm E 2.9 2.9----30.10- 74.1 74.7----
2024-03-02 08:30 pm E 2.9 2.9----30.10- 74.1 74.7----
2024-03-02 08:24 pm E 1.9 1.9----30.10- 73.9 74.7----
2024-03-02 08:18 pmESE 1.0 1.0----30.11- 73.8 74.7----
2024-03-02 08:12 pmESE 1.0 1.9----30.10- 73.9 74.7----
2024-03-02 08:06 pmESE 1.9 1.9----30.11- 73.8 74.7----
2024-03-02 08:00 pmESE 1.9 1.9----30.11+0.00 73.8 74.7----
2024-03-02 07:54 pmESE 1.9 1.9----30.10- 73.8 74.7----
2024-03-02 07:48 pm SE 1.9 1.9----30.11- 73.9 74.7----
2024-03-02 07:42 pmSSE 1.9 1.9----30.11- 74.1 74.7----
2024-03-02 07:36 pmESE 1.9 2.9----30.10- 74.1 74.7----
2024-03-02 07:30 pm E 1.0 1.9----30.10- 74.1 74.7----
2024-03-02 07:24 pmESE 1.9 1.9----30.10- 74.1 74.7----
2024-03-02 07:18 pmESE 1.9 2.9----30.10- 74.3 74.7----
2024-03-02 07:12 pm E 1.9 2.9----30.10- 74.1 74.7----
2024-03-02 07:06 pmESE 1.9 2.9----30.10- 74.3 74.8----
2024-03-02 07:00 pmESE 1.9 2.9----30.10+0.00 74.3 74.8----
2024-03-02 06:54 pm SE 2.9 2.9----30.10- 74.3 74.8----
2024-03-02 06:48 pmESE 1.9 4.1----30.09-- 74.8----
2024-03-02 06:42 pm SE 2.9 4.1----30.09-- 74.8----
2024-03-02 06:36 pm SE 2.9 4.1----30.10-- 74.8----
2024-03-02 06:30 pmESE 1.9 5.1----30.09- 74.5 74.8----
2024-03-02 06:24 pm SE 2.9 5.1----30.10- 74.5 74.8----
2024-03-02 06:18 pm SE 2.9 4.1----30.10-- 74.8----
2024-03-02 06:12 pm SE 2.9 4.1----30.10-- 74.8----
2024-03-02 06:06 pm SE 4.1 5.1----30.10-- 74.8----
2024-03-02 06:00 pmESE 4.1 5.1----30.10- 74.7 74.8----
2024-03-02 05:54 pm SE 5.1 5.1----30.10- 74.7 74.8----
2024-03-02 05:48 pm SE 4.1 5.1----30.10- 74.8 74.8----
2024-03-02 05:42 pm SE 4.1 5.1----30.10- 74.8 74.8----
2024-03-02 05:36 pmESE 4.1 6.0----30.10- 74.8 74.8----
2024-03-02 05:30 pm SE 4.1 5.1----30.10-- 74.8----
2024-03-02 05:24 pmESE 4.1 6.0----30.10-- 74.8----
2024-03-02 05:18 pm SE 5.1 6.0----30.10-- 74.8----
2024-03-02 05:12 pmESE 4.1 6.0----30.10-- 74.8----
2024-03-02 05:06 pm SE 5.1 7.0----30.10-- 74.8----
2024-03-02 05:00 pm SE 6.0 7.0----30.10-0.02 75.0 74.8----
2024-03-02 04:54 pm SE 6.0 8.0----30.10- 75.0 74.8----
2024-03-02 04:48 pm SE 5.1 8.0----30.10- 75.0 74.8----
2024-03-02 04:42 pmESE 5.1 7.0----30.10- 75.2 74.8----
2024-03-02 04:36 pmESE 6.0 8.9----30.10- 75.2 75.0----
2024-03-02 04:30 pmESE 6.0 8.0----30.10- 75.2-----
2024-03-02 04:24 pmESE 7.0 8.0----30.10- 75.2-----
2024-03-02 04:18 pmESE 6.0 8.0----30.10- 75.4 75.0----
2024-03-02 04:12 pm SE 6.0 8.0----30.10- 75.4 75.0----
2024-03-02 04:06 pm SE 6.0 8.0----30.11- 75.6 75.0----
2024-03-02 04:00 pmESE 7.0 8.0----30.11-0.04 75.4 75.0----
2024-03-02 03:54 pm SE 6.0 8.0----30.11- 75.7 74.8----
2024-03-02 03:48 pmESE 6.0 8.0----30.11-- 74.8----
2024-03-02 03:42 pmESE 5.1 8.0----30.11-- 74.8----
2024-03-02 03:36 pm SE 7.0 8.9----30.11-- 74.8----
2024-03-02 03:30 pm SE 6.0 8.9----30.11- 75.6 74.8----
2024-03-02 03:24 pm SE 6.0 8.9----30.11- 75.6 74.8----
2024-03-02 03:18 pmSSE 7.0 8.9----30.11- 75.4 74.8----
2024-03-02 03:12 pm SE 6.0 8.9----30.11- 75.6 74.8----
2024-03-02 03:06 pm SE 6.0 8.9----30.11- 75.6 74.8----
2024-03-02 03:00 pm--------- 75.6-----
2024-03-02 02:54 pm--------- 75.6-----
2024-03-02 02:48 pm SE 5.1 9.9----30.11- 75.7 75.0----
2024-03-02 02:42 pm SE 7.0 8.9----30.11- 75.6 75.0----
2024-03-02 02:36 pm SE 6.0 8.0----30.11- 75.6 75.0----
2024-03-02 02:30 pm SE 6.0 8.9----30.11- 75.6 75.0----
2024-03-02 02:24 pm SE 6.0 9.9----30.11- 75.6 75.0----
2024-03-02 02:18 pm SE 7.0 8.9----30.12- 75.4 75.0----
2024-03-02 02:12 pm SE 7.0 9.9----30.12- 75.6 75.0----
2024-03-02 02:06 pm SE 6.0 8.0----30.12- 75.6 75.0----
2024-03-02 02:00 pm SE 8.0 9.9----30.12-0.05 75.6 75.0----
2024-03-02 01:54 pm SE 6.0 8.9----30.13- 75.6 75.0----
2024-03-02 01:48 pmSSE 7.0 8.9----30.13- 75.6 75.0----
2024-03-02 01:42 pm SE 8.0 9.9----30.13- 75.6 74.8----
2024-03-02 01:36 pm SE 7.0 8.9----30.14- 75.7 74.8----
2024-03-02 01:30 pm SE 5.1 8.0----30.14- 75.7 74.8----
2024-03-02 01:24 pm SE 6.0 8.9----30.14- 75.7 74.8----
2024-03-02 01:18 pm SE 7.0 8.9----30.14- 75.6 74.8----
2024-03-02 01:12 pmESE 5.1 8.0----30.14- 75.9 74.8----
2024-03-02 01:06 pmESE 7.0 8.9----30.15- 75.7 74.8----
2024-03-02 01:00 pm SE 6.0 9.9----30.15-0.03 75.7 74.8----
2024-03-02 12:54 pm SE 8.0 11.1----30.15- 75.7 74.8----
2024-03-02 12:48 pm SE 7.0 8.9----30.15- 75.7 74.7----
2024-03-02 12:42 pm SE 8.0 9.9----30.15- 75.7 74.7----
2024-03-02 12:36 pm SE 7.0 9.9----30.16- 75.9 74.7----
2024-03-02 12:30 pm SE 7.0 9.9----30.16- 75.9 74.7----
2024-03-02 12:24 pm SE 7.0 8.9----30.16- 75.7 74.7----
2024-03-02 12:18 pm SE 5.1 9.9----30.16- 76.1 74.5----
2024-03-02 12:12 pm SE 7.0 8.9----30.16- 75.7 74.5----
2024-03-02 12:06 pm SE 8.0 9.9----30.17- 75.9 74.5----
2024-03-02 12:00 pm SE 6.0 9.9----30.17+0.01 75.9 74.5----
2024-03-02 11:54 am SE 7.0 9.9----30.17- 75.9 74.3----
2024-03-02 11:48 am SE 7.0 9.9----30.17- 75.9 74.3----
2024-03-02 11:42 am SE 6.0 9.9----30.17- 75.7 74.3----
2024-03-02 11:36 am SE 8.0 11.1----30.17- 75.7 74.1----
2024-03-02 11:30 am SE 8.0 11.1----30.18- 75.7 74.1----
2024-03-02 11:24 am SE 8.9 11.1----30.18- 75.7 74.1----
2024-03-02 11:18 am SE 7.0 12.0----30.18- 75.9 74.1----
2024-03-02 11:12 am SE 8.9 9.9----30.18- 75.6 74.1----
2024-03-02 11:06 am SE 8.0 11.1----30.18- 75.7 74.1----
2024-03-02 11:00 am SE 8.0 11.1----30.18+0.02 75.7 74.1----
2024-03-02 10:54 am SE 8.9 12.0----30.17- 75.4 74.1----
2024-03-02 10:48 am SE 8.0 14.0----30.18- 75.6 73.9----
2024-03-02 10:42 am SE 8.0 13.0----30.17- 75.6 73.9----
2024-03-02 10:36 am SE 8.0 9.9----30.17- 75.4 73.9----
2024-03-02 10:30 am SE 8.9 12.0----30.17-- 73.9----
2024-03-02 10:24 amESE 8.9 13.0----30.17-- 73.9----
2024-03-02 10:18 am SE 8.0 12.0----30.17- 75.6 73.9----
2024-03-02 10:12 am SE 8.0 12.0----30.18- 75.6 73.8----
2024-03-02 10:06 am SE 8.9 12.0----30.18- 75.6 73.8----
2024-03-02 10:00 am SE 8.9 12.0----30.18+0.03 75.6 73.8----
2024-03-02 09:54 am SE 8.0 11.1----30.17- 75.4 73.8----
2024-03-02 09:48 am SE 8.0 11.1----30.17- 75.2 73.8----
2024-03-02 09:42 am SE 8.0 12.0----30.17- 75.0 73.8----
2024-03-02 09:36 am SE 8.0 11.1----30.17- 75.2 73.8----
2024-03-02 09:30 am SE 8.0 9.9----30.17- 75.0 73.8----
2024-03-02 09:24 am SE 8.9 11.1----30.17- 75.0 73.6----
2024-03-02 09:18 am SE 8.0 9.9----30.17- 75.0 73.6----
2024-03-02 09:12 am SE 8.9 11.1----30.17- 75.0 73.6----
2024-03-02 09:06 am SE 8.0 11.1----30.17- 74.8 73.6----
2024-03-02 09:00 am SE 8.0 12.0----30.16+0.02 74.8 73.6----
2024-03-02 08:54 amESE 8.9 13.0----30.16- 74.8 73.6----
2024-03-02 08:48 amESE 8.9 12.0----30.16- 74.8 73.6----
2024-03-02 08:42 am SE 8.9 11.1----30.16- 75.0 73.6----
2024-03-02 08:36 am SE 8.0 11.1----30.16- 74.8 73.6----
2024-03-02 08:30 am SE 7.0 11.1----30.16- 74.7 73.6----
2024-03-02 08:24 amESE 7.0 9.9----30.17- 74.8 73.6----
2024-03-02 08:18 amESE 8.9 12.0----30.16- 74.7 73.6----
2024-03-02 08:12 amESE 7.0 11.1----30.16- 74.5 73.6----
2024-03-02 08:06 amESE 8.0 11.1----30.16- 74.5 73.6----
2024-03-02 08:00 amESE 8.0 9.9----30.16+0.03 74.5 73.6----
2024-03-02 07:54 amESE 8.0 12.0----30.16- 74.5 73.6----